Moore, Oklahoma, United States
Lat: 35.34N, Lon: 97.49W
Wx Zone: OKZ029
Local Info
Past Weather Observations for Tuesday, September 30, 2014

NOTE: This archive is for the closest National Weather Service station to Moore. Information may differ from the station used for current weather conditions.

Click here for Long-term Archive

Time Weather Temperature Dewpoint Humidity Pressure Winds Precip Visibility
23:52
Mostly Cloudy
73°F / 23°C 64°F / 18°C 74% 29.77 in
(1008 mb)
SSE 13.8 mph
(SSE 22 kph)
- 10SM
22:52
Partly Cloudy
73°F / 23°C 64°F / 18°C 74% 29.77 in
(1008 mb)
SSE 15 mph
(SSE 24 kph)
- 10SM
21:52
Partly Cloudy
75°F / 24°C 64°F / 18°C 69% 29.77 in
(1008 mb)
SSE 15 mph
(SSE 24 kph)
- 10SM
20:52
Partly Cloudy
77°F / 25°C 63°F / 17°C 61% 29.77 in
(1008 mb)
SSE 12.7 mph
(SSE 20 kph)
- 10SM
19:52
Partly Cloudy
79°F / 26°C 63°F / 17°C 58% 29.77 in
(1008 mb)
SSE 10.4 mph
(SSE 17 kph)
- 10SM
18:52
Partly Cloudy
81°F / 27°C 61°F / 16°C 51% 29.74 in
(1007 mb)
SSE 9.2 mph
(SSE 15 kph)
- 10SM
17:52
Partly Cloudy
82°F / 28°C 57°F / 14°C 42% 29.74 in
(1007 mb)
SSE 12.7 mph
(SSE 20 kph)
- 10SM
16:52
Partly Cloudy
86°F / 30°C 57°F / 14°C 38% 29.74 in
(1007 mb)
S 16.1 mph
(S 26 kph)
- 10SM
15:52
Partly Cloudy
88°F / 31°C 61°F / 16°C 40% 29.74 in
(1007 mb)
S 17.3 mph
(S 28 kph)
- 10SM
14:52
Partly Cloudy
88°F / 31°C 57°F / 14°C 35% 29.77 in
(1008 mb)
S 13.8 mph
(S 22 kph)
- 10SM
13:52
Partly Cloudy
88°F / 31°C 55°F / 13°C 33% 29.8 in
(1009 mb)
S 16.1 mph
(S 26 kph)
- 10SM
12:52
Partly Cloudy
88°F / 31°C 57°F / 14°C 35% 29.83 in
(1010 mb)
S 11.5 mph
(S 19 kph)
- 10SM
11:52
Partly Cloudy
88°F / 31°C 59°F / 15°C 38% 29.86 in
(1011 mb)
S 12.7 mph
(S 20 kph)
- 10SM
10:52
Partly Cloudy
84°F / 29°C 61°F / 16°C 45% 29.89 in
(1012 mb)
S 15 mph
(S 24 kph)
- 10SM
09:52
Partly Cloudy
81°F / 27°C 64°F / 18°C 58% 29.92 in
(1013 mb)
S 16.1 mph
(S 26 kph)
- 10SM
08:52
Mostly Cloudy
75°F / 24°C 64°F / 18°C 69% 29.92 in
(1013 mb)
S 12.7 mph
(S 20 kph)
- 10SM
07:52
Mostly Cloudy
70°F / 21°C 61°F / 16°C 73% 29.92 in
(1013 mb)
S 10.4 mph
(S 17 kph)
- 10SM
06:52
Mostly Cloudy
63°F / 17°C 59°F / 15°C 88% 29.92 in
(1013 mb)
S 4.6 mph
(S 7 kph)
- 10SM
05:52
Partly Cloudy
63°F / 17°C 57°F / 14°C 83% 29.92 in
(1013 mb)
S 5.8 mph
(S 9 kph)
- 10SM
04:52
Partly Cloudy
64°F / 18°C 59°F / 15°C 83% 29.92 in
(1013 mb)
SSE 6.9 mph
(SSE 11 kph)
- 10SM
03:52
Partly Cloudy
63°F / 17°C 57°F / 14°C 83% 29.92 in
(1013 mb)
SSE 8.1 mph
(SSE 13 kph)
- 10SM
02:52
Partly Cloudy
63°F / 17°C 59°F / 15°C 88% 29.92 in
(1013 mb)
SSE 5.8 mph
(SSE 9 kph)
- 10SM
01:52
Partly Cloudy
61°F / 16°C 57°F / 14°C 88% 29.95 in
(1014 mb)
SSE 5.8 mph
(SSE 9 kph)
- 10SM
00:52
Partly Cloudy
61°F / 16°C 57°F / 14°C 88% 29.92 in
(1013 mb)
S 5.8 mph
(S 9 kph)
- 10SM
Time Weather Temperature Dewpoint Humidity Pressure Winds Precip Visibility


Weather for websites

WeatherForYou.com, LLC is not responsible for any damages or problems caused by this service. Current weather conditions are obtained from the closest station including government and personal stations which may have varying degrees of accuracy. Weather forecasts are derived from the NOAA NDFD. Like all things, this site belongs to Jesus Christ... He just trusts me to maintain it. If you have any questions or comments email webmaster@weatherforyou.com

Copyright © 2014, WeatherForYou.com LLC. All rights reserved.